Weather in Varskiye

Russia / Ryazan Oblast     54°41′59″N   39°52′01″E
temp.,
°C
wind,
m/s
gust,
m/s
humid.,
%
clouds,
%
prec.,
mm/h
press.,
hPa
HPBL,
m
25 february, thu
thu2500:00−15s4895100 0.4 1030364
03:00−13ssw4995100 0.8 1027371
06:00−11ssw51095100 1.5 1023362
09:00−7sw61393100 3.4 1019549
12:00+1wsw613100100 1.1 1015468
15:00+2wnw513100100 1.7 1013442
18:00+2wnw51299100 0.0 1013386
21:00+1wnw4999100 0.0 1014257
26 february, fri
fri2600:00+1w3899100 0.0 1014247
03:00+1w4999100 0.1 1014270
06:00+2w41199100 0.3 1012309
09:00+2wsw51299100 0.9 1011365
12:00+3wsw513100100 0.1 1008338
15:00+3wsw615100100 0.6 1005466
18:00+3w71797100 0.4 1004751
21:00+2w6159193 0.4 1004772
27 february, sat
sat2700:00+1w7158871 0.0 1003792
03:00+1wnw7149080 0.1 1003747
06:000w6149295 0.0 1002588
09:000w7149094 0.0 1002644
12:00+1wnw6129397 0.1 1001858
15:00+1nw7129998 0.3 1003817
18:00−3nnw41089100 0.3 1005588
21:00−5n4891100 0.4 1008560
28 february, sun
sun2800:00−5n3694100 0.1 1010477
03:00−7nnw3791100 0.2 1012494
06:00−9nnw379496 0.0 1014290
09:00−9nnw379294 0.0 1015430
12:00−5nnw4787100 0.0 1017625
15:00−4nnw4886100 0.1 1017811
18:00−4nnw3795100 0.1 1019290
21:00−6n2996100 0.3 1021364
1 march, mon
mon100:00−7nnw249697 0.1 1023120
03:00−7nnw379696 0.2 1025205
06:00−8nw239778 0.1 102676
09:00−7nnw269574 0.1 1027215
12:00−3nw368790 0.0 1027629
15:00−2w468591 0.1 1027623
18:00−4wsw4992100 0.0 1026250
21:00−3w51193100 0.0 1024374